Date,TemperatureHighF,TemperatureAvgF,TemperatureLowF,DewpointHighF,DewpointAvgF,DewpointLowF,HumidityHigh,HumidityAvg,HumidityLow,PressureMaxIn,PressureMinIn,WindSpeedMaxMPH,WindSpeedAvgMPH,GustSpeedMaxMPH,PrecipitationSumIn
2013-9-1,93.6,85.0,77.2,76.0,63.3,42.3,84,53,19,29.97,29.88,0,0,0,0.00
2013-9-2,93.6,84.3,77.7,73.0,60.8,31.1,79,50,11,29.94,29.85,0,0,0,0.28
2013-9-3,89.2,82.2,75.4,74.1,66.8,52.1,87,62,30,29.94,29.85,0,0,0,0.79
2013-9-4,87.6,79.3,76.1,77.3,71.5,64.0,91,78,47,29.94,29.85,0,0,0,0.75
2013-9-5,81.7,77.6,75.4,73.9,71.2,66.4,89,81,67,29.97,29.85,0,0,0,0.79
2013-9-6,87.8,80.1,74.1,73.9,67.3,57.4,90,68,39,29.97,29.88,0,0,0,0.28
2013-9-7,88.0,80.9,76.1,72.6,66.1,50.9,86,63,30,29.97,29.88,0,0,0,0.28
2013-9-8,94.1,82.9,73.4,71.3,61.5,42.1,80,53,18,29.94,29.85,0,0,0,0.47
2013-9-9,99.0,86.9,78.8,71.8,55.1,19.2,77,43,6,29.97,29.88,0,0,0,0.00
2013-9-10,95.7,85.1,75.9,71.6,56.2,38.4,77,44,14,30.00,29.88,0,0,0,0.00
2013-9-11,89.4,82.2,76.1,71.2,64.9,51.6,77,58,29,30.00,29.91,0,0,0,0.08
2013-9-12,84.2,80.0,77.0,77.1,71.2,65.8,88,75,55,29.91,29.79,0,0,0,0.47
2013-9-13,92.1,82.6,75.0,77.3,61.9,42.1,90,56,18,29.82,29.73,0,0,0,0.04
2013-9-14,92.8,82.0,75.6,71.8,66.0,51.8,79,61,27,29.91,29.76,0,0,0,0.39
2013-9-15,99.3,86.0,75.0,75.5,56.4,16.1,86,47,5,29.94,29.85,0,0,0,0.04
2013-9-16,96.4,86.1,77.9,73.9,61.6,43.4,78,49,17,29.94,29.82,0,0,0,0.00
2013-9-17,93.9,84.4,77.9,74.3,63.6,44.9,79,54,19,29.91,29.82,0,0,0,0.00
2013-9-18,99.1,86.6,76.5,73.4,57.5,20.2,81,46,6,29.91,29.79,0,0,0,0.00
2013-9-19,101.8,87.2,79.3,72.9,59.1,16.5,77,49,5,29.91,29.79,0,0,0,0.67
2013-9-20,99.9,84.0,78.4,72.3,65.0,26.7,81,59,8,29.88,29.79,0,0,0,0.67
2013-9-21,93.7,82.9,76.1,74.4,66.5,41.9,85,62,19,29.85,29.76,0,0,0,0.16
2013-9-22,99.5,86.5,75.9,75.1,53.8,16.1,85,44,5,29.91,29.79,0,0,0,0.00
2013-9-23,100.9,87.5,77.4,72.1,54.6,16.1,76,42,5,29.94,29.82,0,0,0,0.00
2013-9-24,99.5,88.0,79.5,70.7,52.4,4.9,74,40,3,29.94,29.82,0,0,0,0.00
2013-9-25,100.2,87.9,77.2,71.0,48.9,16.1,76,37,5,29.88,29.76,0,0,0,0.00
2013-9-26,99.5,87.9,78.3,70.8,51.3,16.1,74,38,5,29.88,29.73,0,0,0,0.00
2013-9-27,101.7,88.1,77.7,71.3,50.0,16.1,75,37,5,29.88,29.76,0,0,0,0.00
2013-9-28,100.4,88.0,78.1,68.8,49.8,16.1,70,36,5,29.91,29.79,0,0,0,0.12
2013-9-29,100.9,88.1,77.4,72.1,53.3,16.2,76,40,5,29.91,29.79,0,0,0,0.00
2013-9-30,97.7,86.6,78.8,72.8,60.7,33.6,79,47,11,29.97,29.85,0,0,0,0.04